SCP
0 0 0 0 0 0 0 0 0 0 0 0 0 0 0 0 0 0 0 0 0 0 0 0 0 0 0 0 0 0 0 1 1 1 0 0 0 0
0 0 0 0 0 0 0 0 0 0 0 0 0 0 0 0 0 0 0 0 0 0 0 0 0 0 0 0 0 0 0 0 0 0 0 0 0 0
0 0 0 0 0 0 0 0 0 0 0 0 0 0 0 0 0 0 0 0 0 0 0 0 0 0 0 0 0 0 0 0 0 0 0 0 0 0
0 0 0 0 0 0 0 0 0 0 0 0 0 0 0 0 0 0 0 0 0 0 0 0 0 0 0 0 0 0 0 0 0 0 0 0 0 0
0 0 0 0 0 0 0 0 0 0 0 0 0 0 0 0 0 0 0 0 0 0 0 0 0 0 0 0 0 0 0 0 0 0 0 0 0 0
0 0 0 0 0 0 0 0 0 0 0 0 0 0 0 0 0 0 0 0 0 0 0 0 0 0 0 0 0 0 0 0 0 0 0 0 0 0
0 0 0 0 0 0 0 0 0 0 0 0 0 0 0 0 0 0 0 0 0 0 0 0 0 0 0 0 0 0 0 0 0 0 0 0 0 0
0 0 0 0 0 0 0 0 0 0 0 0 0 0 0 0 0 0 0 0 0 0 0 0 0 0 0 0 0 0 0 0 0 0 0 0 0 0
0 0 0 0 0 0 0 0 0 0 0 0 0 0 0 0 0 0 0 0 0 0 0 0 0 0 0 0 0 0 0 0 0 0 0 0 0 0
0 0 0 0 0 0 0 0 0 0 0 0 0 0 0 0 0 0 0 0 0 0 0 0 0 0 0 0 0 0 0 0 0 0 0 0 0 0
0 0 0 0 0 0 0 0 0 0 0 0 0 0 0 0 0 0 0 0 0 0 0 0 0 0 0 0 0 0 0 0 0 0 0 0 0 0
0 0 0 0 0 0 0 0 0 0 0 0 0 0 0 0 0 0 0 0 0 0 0 0 0 0 0 0 0 0 0 0 0 0 0 0 0 0
0 0 0 0 0 0 0 0 0 0 0 0 0 0 0 0 0 0 0 0 0 0 0 0 0 0 0 0 0 0 0 0 0 0 0 0 0 0
0 0 0 0 0 0 0 0 0 0 0 0 0 0 0 0 0 0 0 0 0 0 0 0 0 0 0 0 0 0 0 0 0 0 0 0 0 0
0 0 0 0 0 0 0 0 0 0 0 0 0 0 0 0 0 0 0 0 0 0 0 0 0 0 0 0 0 0 0 0 0 0 0 0 0 0
0 0 0 0 0 0 0 0 0 0 0 0 0 0 0 0 0 0 0 0 0 0 0 0 0 0 0 0 0 0 0 0 0 0 0 0 0 0
0 0 0 0 0 0 0 0 0 0 0 0 0 0 0 0 0 0 0 0 0 0 0 0 0 0 0 0 0 0 0 0 0 0 0 0 0 0
0 0 0 0 0 0 0 0 0 0 0 0 0 0 0 0 0 0 0 0 0 0 0 0 0 0 0 0 0 0 0 0 0 0 0 0 0 0
0 0 0 0 0 0 0 0 0 0 0 0 0 0 0 0 0 0 0 0 0 0 0 0 0 0 0 0 0 0 0 0 0 0 0 0 0 0
0 0 0 0 0 0 0 0 0 0 0 0 0 0 0 0 0 0 0 0 0 0 0 0 0 0 0 0 0 0 0 0 0 0 0 0 0 0
0 0 0 0 0 0 0 0 0 0 0 0 0 0 0 0 0 0 0 0 0 0 0 0 0 0 0 0 0 0 0 0 0 0 0 0 0 0
0 0 0 0 0 0 0 0 0 0 0 0 0 0 0 0 0 0 0 0 0 0 0 0 0 0 0 0 0 0 0 0 0 0 0 0 0 0
0 0 0 0 0 0 0 0 0 0 0 0 0 0 0 0 0 0 0 0 0 0 0 0 0 0 0 0 0 0 0 0 0 0 0 0 0 0
Wind_Speed
5 5 5 4 4 4 3 3 4 5 5 4 2 1 2 2 4 4 4 8 12 14 15 17 18 18 19 19 20 20 19 19 19 19 19 19 19 19
5 6 5 5 4 4 3 3 4 4 5 4 3 3 2 4 4 4 5 7 11 14 15 16 17 18 18 19 19 20 19 19 19 19 19 18 18 18
6 7 6 6 5 4 4 4 4 4 5 5 4 3 4 4 4 4 4 5 6 14 16 16 17 18 18 19 19 19 19 19 19 19 19 18 17 17
6 6 6 6 6 5 5 5 5 5 5 6 5 5 5 5 5 5 6 6 6 11 15 16 16 17 18 19 19 19 19 19 19 18 18 18 17 17
6 6 6 6 6 5 5 6 5 6 5 5 5 4 4 4 4 5 6 4 6 7 12 15 16 16 17 18 18 18 18 18 18 18 18 17 16 16
6 7 7 7 7 6 6 6 6 6 6 5 5 5 4 5 4 4 4 3 4 5 6 8 11 14 15 16 17 17 18 18 17 17 17 16 16 15
7 7 8 9 9 7 8 5 5 4 5 5 5 5 4 3 4 3 4 3 3 3 3 4 5 6 8 12 14 16 16 17 17 17 16 16 15 14
8 7 8 10 11 12 13 12 9 8 7 6 5 5 5 4 4 4 3 3 3 2 2 3 4 5 6 6 11 14 15 16 16 16 16 15 15 14
8 8 9 10 8 6 8 11 12 14 13 8 8 7 7 5 4 4 3 4 4 2 2 2 2 3 3 5 11 14 15 15 16 16 16 15 14 14
9 9 8 8 9 7 7 7 6 7 9 10 9 9 9 7 5 5 5 4 4 3 3 2 2 2 2 3 9 12 13 14 14 15 15 15 14 14
9 9 8 7 7 7 6 6 7 6 9 12 12 12 13 11 7 4 4 3 4 3 3 3 2 2 2 2 4 10 12 13 13 14 15 15 14 13
6 7 8 7 6 6 5 6 7 6 7 7 7 8 8 9 11 8 6 5 4 4 3 3 3 3 2 1 3 4 6 8 11 13 14 15 16 10
6 5 3 2 3 6 7 6 8 7 6 6 6 6 6 6 7 7 7 7 6 5 4 4 4 3 3 3 2 4 5 5 6 7 11 14 15 11
6 6 3 2 4 6 7 9 10 7 6 7 6 6 6 6 6 6 7 7 6 6 5 4 4 4 4 4 3 4 4 5 6 6 7 10 10 9
7 9 9 10 10 9 12 14 10 7 7 8 7 6 6 5 5 4 5 5 5 6 6 6 5 4 4 4 5 5 4 5 6 7 8 8 7 7
7 8 11 12 11 11 10 9 8 8 8 7 6 6 5 4 4 4 5 5 5 4 5 6 6 6 4 4 5 6 5 6 7 7 7 6 6 7
5 6 7 7 7 7 7 7 6 6 8 7 6 6 5 4 4 4 4 4 5 5 5 4 5 5 5 5 5 6 6 6 7 7 7 7 6 6
4 7 8 8 8 7 6 6 6 6 6 6 6 6 6 5 5 4 4 5 5 6 5 5 5 4 3 2 5 7 6 6 7 7 6 7 7 6
6 8 9 8 8 7 6 6 6 5 5 6 6 6 5 5 4 4 4 5 5 5 5 5 6 6 7 5 4 6 7 7 8 6 6 5 6 7
8 9 8 7 7 6 6 5 5 4 4 5 5 5 5 5 4 4 5 5 5 5 5 5 6 6 7 6 5 5 8 9 8 8 6 4 4 6
7 7 7 6 6 5 5 5 5 4 5 4 5 5 5 4 5 5 5 6 6 5 6 6 5 7 4 4 5 5 4 6 8 7 8 7 6 6
6 6 5 5 5 5 4 4 4 4 4 4 4 4 4 4 5 6 5 5 5 5 5 5 6 6 4 5 6 7 6 5 6 9 8 4 5 8
5 5 5 5 4 4 4 4 5 4 4 4 3 4 4 4 4 4 4 4 4 5 5 5 6 5 5 5 6 6 9 8 6 6 4 8 4 5
Wind_Direction
276 274 263 268 268 267 260 251 254 270 274 277 276 251 264 257 209 214 221 219 218 220 220 219 216 212 210 208 208 209 210 209 208 210 211 212 215 219
278 274 276 272 271 268 263 258 249 252 265 276 278 271 273 274 239 228 230 228 222 219 219 219 218 215 211 209 209 208 208 208 208 208 209 209 211 214
281 279 275 272 272 276 274 266 258 253 260 268 271 279 270 265 263 247 241 231 226 220 217 217 218 216 213 212 210 209 208 208 207 208 208 209 209 210
283 284 284 280 271 266 267 269 264 255 254 264 269 274 272 260 250 243 247 242 232 225 217 216 216 216 213 211 211 209 208 207 206 206 206 206 207 208
284 281 280 280 277 267 263 265 269 269 259 258 263 261 266 265 261 255 250 247 244 233 217 215 215 214 212 210 208 207 205 204 203 203 203 204 205 207
279 277 275 271 270 270 268 258 260 266 269 265 262 258 257 260 256 248 245 235 240 240 228 211 209 209 209 207 206 204 202 201 200 200 200 200 201 203
291 283 276 273 270 266 270 271 276 275 276 277 272 270 260 257 260 248 243 240 242 224 220 205 189 196 202 204 203 201 198 196 197 197 195 195 195 197
288 285 283 275 264 251 246 246 244 251 258 265 273 273 275 276 287 271 255 242 253 217 195 224 195 194 192 193 194 192 191 192 192 191 190 189 189 190
279 280 281 284 293 279 258 247 243 242 239 245 257 265 272 274 286 283 273 254 245 224 193 228 214 209 189 186 181 183 185 186 187 186 185 184 184 186
268 267 267 272 280 282 282 273 260 249 239 236 240 248 255 255 255 257 255 265 255 229 204 223 206 201 175 165 176 177 179 180 182 181 180 179 179 180
269 270 268 266 263 259 264 268 270 271 266 253 238 237 239 241 236 244 246 243 246 233 209 204 193 180 171 159 166 171 172 174 175 176 176 173 170 167
279 275 270 266 257 245 249 262 268 272 281 286 272 255 243 238 230 223 228 233 234 238 207 187 180 165 168 159 161 159 160 166 169 170 169 167 163 162
289 291 305 318 273 257 250 255 262 275 281 277 272 264 245 233 229 223 217 221 224 236 203 178 182 176 165 155 156 166 164 159 160 163 167 168 169 168
280 287 295 305 289 278 262 257 261 266 265 264 261 258 248 237 233 225 215 215 219 224 215 196 189 182 168 164 159 157 164 162 158 157 161 166 171 167
267 282 290 282 275 267 253 250 251 249 249 252 252 251 248 241 234 227 220 216 221 223 218 209 198 186 182 173 161 158 158 165 165 158 159 165 166 161
263 283 280 269 261 259 263 249 234 236 241 247 249 250 247 242 236 228 219 210 210 218 215 207 201 189 186 179 163 163 162 162 165 161 156 161 167 169
316 291 282 279 271 259 252 248 241 232 234 240 245 248 246 240 237 228 217 212 210 208 206 200 198 192 185 171 168 168 162 157 161 160 157 161 170 170
282 274 274 274 272 269 262 254 246 238 233 234 236 237 235 232 230 230 220 214 213 207 199 189 174 165 166 196 179 168 164 161 160 163 160 160 168 169
255 264 265 266 268 268 263 259 254 243 234 232 231 232 228 226 224 222 223 223 217 205 197 188 181 178 180 185 181 178 166 159 159 166 169 162 164 166
245 257 262 264 265 266 263 259 255 247 239 234 232 229 223 219 220 219 222 222 212 202 197 190 187 186 188 181 163 165 171 162 163 166 162 139 118 119
265 264 264 265 269 265 261 257 255 248 240 234 228 225 222 219 219 221 219 219 213 203 197 195 191 177 164 151 144 139 148 162 164 160 156 153 151 151
267 272 274 272 269 266 260 255 252 247 239 233 230 223 217 217 222 223 217 211 207 203 200 182 168 167 170 171 164 150 143 135 108 102 97 104 165 171
274 277 280 283 277 269 265 258 252 240 229 226 228 226 221 214 216 219 221 216 208 198 184 173 168 169 175 170 162 151 148 147 142 127 74 29 60 109